EW5287 Weather Reports


time (UTC)temp
F
wind
direction
speed
knots
gust
knots
rain 1hr
in
rain 24hr
in
rain mn
in
humidity
%
barometer
mb
20200218230105 45 220 0.0 8.7 0.01 0.01 0.00 85 1017.0
20200218224536 45 180 0.0 4.3 0.00 0.00 0.00 82 1017.1
20200218223035 45 211 0.0 2.6 0.00 0.00 0.00 80 1017.7
20200218221520 45 161 0.9 10.4 0.00 0.00 0.00 80 1018.1
20200218220032 45 180 0.0 4.3 0.00 0.00 0.00 79 1018.4
20200218214518 45 196 0.0 0.0 0.00 0.00 0.00 80 1018.8
20200218213011 45 225 0.0 0.0 0.00 0.00 0.00 80 1019.2
20200218211506 45 188 0.0 0.9 0.00 0.00 0.00 80 1019.6
20200218210003 45 218 0.0 0.9 0.00 0.00 0.00 79 1020.0
20200218204504 45 248 0.0 0.0 0.00 0.00 0.00 78 1020.3
20200218203159 45 229 0.0 0.0 0.00 0.00 0.00 78 1020.5
20200218201628 45 225 0.0 5.2 0.00 0.00 0.00 79 1020.7
20200218200128 45 197 0.0 3.5 0.00 0.00 0.00 80 1020.9
20200218194505 45 209 0.0 7.8 0.00 0.01 0.00 78 1021.2
20200218193010 45 248 0.0 0.9 0.00 0.01 0.00 79 1021.5
20200218191505 45 226 0.0 0.9 0.00 0.01 0.00 80 1021.6
20200218190008 45 189 0.0 1.7 0.00 0.01 0.00 80 1021.7
20200218184501 45 207 0.9 6.1 0.00 0.02 0.00 79 1021.9
20200218181714 45 290 0.0 0.0 0.00 0.02 0.00 78 1022.4
20200218180125 45 225 0.0 0.0 0.00 0.02 0.00 78 1022.4
20200218174742 45 238 0.0 0.0 0.00 0.02 0.00 78 1022.7
20200218173202 45 264 0.0 0.0 0.00 0.02 0.00 78 1022.8
20200218171621 45 220 0.0 0.0 0.00 0.02 0.00 80 1022.8
20200218170228 45 178 0.0 0.0 0.00 0.02 0.00 80 1022.8
20200218164527 45 209 0.0 0.0 0.00 0.02 0.00 80 1022.9
20200218163040 46 190 0.0 0.0 0.00 0.02 0.00 78 1023.1
20200218161537 46 235 0.0 0.0 0.00 0.02 0.00 76 1023.2
20200218160050 47 215 0.0 1.7 0.00 0.02 0.00 76 1023.5
20200218154518 47 211 0.0 1.7 0.00 0.02 0.00 76 1023.5
20200218153042 48 217 0.0 3.5 0.00 0.02 0.00 76 1023.9
20200218151558 48 241 0.0 7.0 0.00 0.02 0.00 73 1023.8
20200218150016 48 212 0.0 13.0 0.00 0.02 0.00 72 1023.9
20200218144523 48 202 0.0 9.6 0.00 0.02 0.00 73 1023.9
20200218143021 47 246 0.0 7.8 0.00 0.02 0.00 75 1024.1
20200218141547 47 242 0.0 10.4 0.00 0.02 0.00 75 1024.2
20200218140021 48 234 0.0 8.7 0.00 0.02 0.00 74 1024.2
20200218134518 47 259 0.0 3.5 0.00 0.06 0.00 76 1024.6
20200218133034 47 229 0.0 0.0 0.00 0.06 0.00 76 1024.6
20200218131514 47 217 0.0 1.7 0.00 0.06 0.00 77 1024.6
20200218130007 47 244 0.0 0.9 0.00 0.06 0.00 78 1024.6
20200218124523 46 248 0.0 7.0 0.00 0.07 0.00 78 1024.6
20200218123020 46 205 0.0 1.7 0.00 0.07 0.00 78 1024.7
20200218121521 46 226 0.0 10.4 0.00 0.07 0.00 80 1024.8
20200218120001 46 247 0.0 8.7 0.00 0.07 0.00 80 1024.9
20200218114655 45 192 0.0 2.6 0.00 0.07 0.00 81 1025.0
20200218113241 45 232 0.0 10.4 0.00 0.07 0.00 81 1025.1
20200218111644 46 230 0.0 0.0 0.00 0.07 0.00 82 1025.2
20200218110500 44 278 0.0 2.6 0.00 0.07 0.00 83 1025.3
20200218104506 44 190 0.0 1.7 0.00 0.07 0.00 85 1025.4
20200218103012 43 243 0.0 0.9 0.00 0.07 0.00 84 1025.4
20200218101532 43 248 0.0 2.6 0.00 0.07 0.00 83 1025.6
20200218100008 43 263 0.0 2.6 0.00 0.07 0.00 84 1025.6
20200218094503 43 229 0.0 1.7 0.00 0.07 0.00 85 1025.5
20200218093003 43 221 0.0 7.0 0.00 0.07 0.00 84 1025.6
20200218090132 42 213 0.0 2.6 0.00 0.07 0.00 85 1025.5
20200218084620 42 244 0.0 2.6 0.00 0.07 0.00 86 1025.5
20200218083152 42 186 0.0 0.0 0.00 0.07 0.00 86 1025.3
20200218081644 41 184 0.0 0.9 0.00 0.07 0.00 86 1025.3
20200218080159 41 163 0.0 1.7 0.00 0.07 0.00 86 1025.3
20200218074809 41 231 0.0 3.5 0.00 0.07 0.00 87 1025.0
20200218073142 41 233 0.0 1.7 0.00 0.07 0.00 87 1024.8
20200218071706 41 262 0.0 4.3 0.00 0.07 0.00 87 1024.6
20200218070149 40 200 0.0 3.5 0.00 0.07 0.00 86 1024.5
20200218064612 41 207 0.0 8.7 0.00 0.07 0.00 86 1024.3
20200218063122 41 232 0.0 0.0 0.00 0.07 0.00 85 1024.1
20200218061705 41 219 0.0 8.7 0.00 0.07 0.00 85 1024.1
20200218060113 42 201 0.0 0.9 0.00 0.07 0.00 86 1024.0
20200218054600 42 240 0.0 1.7 0.00 0.07 0.00 86 1023.9
20200218053150 42 246 0.0 1.7 0.00 0.07 0.00 86 1024.1
20200218051546 42 242 0.0 5.2 0.00 0.07 0.00 86 1023.9
20200218050056 42 225 0.0 3.5 0.00 0.07 0.00 86 1023.9
20200218043112 42 260 0.0 0.9 0.00 0.07 0.00 86 1023.8
20200218041611 42 189 0.0 5.2 0.00 0.07 0.00 87 1023.6
20200218040129 42 190 0.0 5.2 0.00 0.07 0.00 87 1023.6
20200218034528 41 219 0.0 0.0 0.00 0.07 0.00 86 1023.5
20200218033102 42 209 0.0 0.0 0.00 0.07 0.00 86 1023.3
20200218031520 42 178 0.0 6.1 0.00 0.07 0.00 86 1023.1
20200218030025 42 235 0.0 1.7 0.00 0.07 0.00 86 1023.2
20200218024514 42 152 0.0 0.9 0.00 0.07 0.00 87 1023.1
20200218023014 42 248 0.0 3.5 0.00 0.07 0.00 86 1022.9
20200218021514 42 227 0.0 1.7 0.00 0.07 0.00 85 1022.8
20200218014813 42 245 0.0 7.0 0.00 0.07 0.00 85 1022.6
20200218013112 43 248 0.0 2.6 0.00 0.07 0.00 85 1022.4
20200218011635 43 245 0.0 8.7 0.00 0.07 0.00 84 1022.2
20200218010128 43 219 0.0 2.6 0.00 0.07 0.00 84 1022.1
20200218004642 43 255 0.0 4.3 0.00 0.07 0.00 84 1021.8
20200218003110 44 224 0.0 2.6 0.00 0.07 0.00 83 1021.8
20200218001547 44 277 0.0 0.9 0.00 0.07 0.00 83 1021.5
20200218000038 43 182 0.0 1.7 0.00 0.07 0.00 85 1021.5
20200217234631 43 205 0.0 2.6 0.00 0.07 0.00 86 1021.2
20200217233043 44 204 0.0 4.3 0.00 0.07 0.00 85 1021.0
20200217231610 44 256 0.0 7.8 0.00 0.07 0.00 85 1021.0